Time,TemperatureF,DewpointF,PressureIn,WindDirection,WindDirectionDegrees,WindSpeedMPH,WindSpeedGustMPH,Humidity,HourlyPrecipIn,Conditions,Clouds,dailyrainin,SoftwareType,DateUTC
2013-08-23 00:00:00,77.0,68.9,29.97,West,270,0.0,0.0,76,0.00,,,0.00,WUHU216HW,2013-08-23 04:00:00,
2013-08-23 00:01:00,77.0,68.9,29.97,West,270,0.0,0.0,76,0.00,,,0.00,WUHU216HW,2013-08-23 04:01:00,
2013-08-23 00:06:00,77.0,68.9,29.97,West,270,0.0,0.0,76,0.00,,,0.00,WUHU216HW,2013-08-23 04:06:00,
2013-08-23 00:30:00,76.5,69.1,29.96,West,270,0.0,0.0,78,0.00,,,0.00,WUHU216HW,2013-08-23 04:30:00,
2013-08-23 00:35:00,76.5,69.1,29.96,West,270,0.0,0.0,78,0.00,,,0.00,WUHU216HW,2013-08-23 04:35:00,
2013-08-23 01:00:00,76.0,69.0,29.96,West,270,0.2,0.2,79,0.00,,,0.00,WUHU216HW,2013-08-23 05:00:00,
2013-08-23 01:05:00,76.0,69.0,29.96,West,270,0.2,0.2,79,0.00,,,0.00,WUHU216HW,2013-08-23 05:05:00,
2013-08-23 01:30:00,75.8,69.6,29.94,West,270,0.0,0.0,81,0.00,,,0.00,WUHU216HW,2013-08-23 05:30:00,
2013-08-23 01:35:00,75.8,69.6,29.94,West,270,0.0,0.0,81,0.00,,,0.00,WUHU216HW,2013-08-23 05:35:00,
2013-08-23 02:00:00,75.8,69.6,29.93,WSW,248,0.2,0.2,81,0.00,,,0.00,WUHU216HW,2013-08-23 06:00:00,
2013-08-23 02:05:00,75.8,69.6,29.93,WSW,248,0.2,0.2,81,0.00,,,0.00,WUHU216HW,2013-08-23 06:05:00,
2013-08-23 02:30:00,75.2,69.5,29.93,SW,225,0.0,0.0,82,0.00,,,0.00,WUHU216HW,2013-08-23 06:30:00,
2013-08-23 02:35:00,75.2,69.5,29.93,SW,225,0.0,0.0,82,0.00,,,0.00,WUHU216HW,2013-08-23 06:35:00,
2013-08-23 03:00:00,75.1,69.6,29.91,North,0,0.0,0.0,83,0.00,,,0.00,WUHU216HW,2013-08-23 07:00:00,
2013-08-23 03:05:00,75.1,69.6,29.91,North,0,0.0,0.0,83,0.00,,,0.00,WUHU216HW,2013-08-23 07:05:00,
2013-08-23 03:30:00,74.5,69.0,29.91,NE,45,0.0,0.0,83,0.00,,,0.00,WUHU216HW,2013-08-23 07:30:00,
2013-08-23 03:35:00,74.5,69.0,29.91,NE,45,0.0,0.0,83,0.00,,,0.00,WUHU216HW,2013-08-23 07:35:00,
2013-08-23 04:00:00,74.3,69.2,29.91,SSE,158,0.0,0.0,84,0.00,,,0.00,WUHU216HW,2013-08-23 08:00:00,
2013-08-23 04:05:00,74.3,69.2,29.91,SSE,158,0.0,0.0,84,0.00,,,0.00,WUHU216HW,2013-08-23 08:05:00,
2013-08-23 04:30:00,73.8,69.0,29.91,ENE,68,0.0,0.0,85,0.00,,,0.00,WUHU216HW,2013-08-23 08:30:00,
2013-08-23 04:35:00,73.8,69.0,29.91,ENE,68,0.0,0.0,85,0.00,,,0.00,WUHU216HW,2013-08-23 08:35:00,
2013-08-23 05:00:00,73.4,68.7,29.92,East,90,0.0,0.0,85,0.00,,,0.00,WUHU216HW,2013-08-23 09:00:00,
2013-08-23 05:04:00,73.4,68.7,29.92,East,90,0.0,0.0,85,0.00,,,0.00,WUHU216HW,2013-08-23 09:04:00,
2013-08-23 05:30:00,73.1,68.3,29.92,SE,135,0.0,0.0,85,0.00,,,0.00,WUHU216HW,2013-08-23 09:30:00,
2013-08-23 05:35:00,73.1,68.3,29.92,SE,135,0.0,0.0,85,0.00,,,0.00,WUHU216HW,2013-08-23 09:35:00,
2013-08-23 06:00:00,72.9,68.1,29.93,WNW,293,0.0,0.0,85,0.00,,,0.00,WUHU216HW,2013-08-23 10:00:00,
2013-08-23 06:05:00,72.9,68.1,29.93,WNW,293,0.0,0.0,85,0.00,,,0.00,WUHU216HW,2013-08-23 10:05:00,
2013-08-23 06:30:00,72.0,67.2,29.94,East,90,0.0,0.0,85,0.00,,,0.00,WUHU216HW,2013-08-23 10:30:00,
2013-08-23 06:35:00,72.0,67.2,29.94,East,90,0.0,0.0,85,0.00,,,0.00,WUHU216HW,2013-08-23 10:35:00,
2013-08-23 07:00:00,71.8,67.1,29.94,WSW,248,0.4,0.4,85,0.00,,,0.00,WUHU216HW,2013-08-23 11:00:00,
2013-08-23 07:05:00,71.8,67.1,29.94,WSW,248,0.4,0.4,85,0.00,,,0.00,WUHU216HW,2013-08-23 11:05:00,
2013-08-23 07:30:00,72.0,67.6,29.95,SW,225,0.0,0.0,86,0.00,,,0.00,WUHU216HW,2013-08-23 11:30:00,
2013-08-23 07:35:00,72.0,67.6,29.95,SW,225,0.0,0.0,86,0.00,,,0.00,WUHU216HW,2013-08-23 11:35:00,
2013-08-23 08:00:00,72.2,67.8,29.96,WNW,293,0.0,0.0,86,0.00,,,0.00,WUHU216HW,2013-08-23 12:00:00,
2013-08-23 08:04:00,72.2,67.8,29.96,WNW,293,0.0,0.0,86,0.00,,,0.00,WUHU216HW,2013-08-23 12:04:00,
2013-08-23 08:30:00,72.7,67.6,29.96,ESE,113,0.2,0.2,84,0.00,,,0.00,WUHU216HW,2013-08-23 12:30:00,
2013-08-23 08:35:00,72.7,67.6,29.96,ESE,113,0.2,0.2,84,0.00,,,0.00,WUHU216HW,2013-08-23 12:35:00,
2013-08-23 09:00:00,73.6,68.9,29.95,WSW,248,0.0,0.0,85,0.00,,,0.00,WUHU216HW,2013-08-23 13:00:00,
2013-08-23 09:04:00,73.6,68.9,29.95,WSW,248,0.0,0.0,85,0.00,,,0.00,WUHU216HW,2013-08-23 13:04:00,
2013-08-23 09:30:00,74.5,69.0,29.95,West,270,0.7,0.7,83,0.00,,,0.00,WUHU216HW,2013-08-23 13:30:00,
2013-08-23 09:35:00,74.5,69.0,29.95,West,270,0.7,0.7,83,0.00,,,0.00,WUHU216HW,2013-08-23 13:35:00,
2013-08-23 10:00:00,75.8,69.6,29.95,NNE,23,0.0,0.0,81,0.00,,,0.00,WUHU216HW,2013-08-23 14:00:00,
2013-08-23 10:05:00,75.8,69.6,29.95,NNE,23,0.0,0.0,81,0.00,,,0.00,WUHU216HW,2013-08-23 14:05:00,
2013-08-23 10:30:00,76.7,70.4,29.95,SSW,203,0.9,0.9,81,0.00,,,0.00,WUHU216HW,2013-08-23 14:30:00,
2013-08-23 10:35:00,76.7,70.4,29.95,SSW,203,0.9,0.9,81,0.00,,,0.00,WUHU216HW,2013-08-23 14:35:00,
2013-08-23 11:00:00,78.8,71.8,29.96,NW,315,0.9,0.9,79,0.00,,,0.00,WUHU216HW,2013-08-23 15:00:00,
2013-08-23 11:05:00,78.8,71.8,29.96,NW,315,0.9,0.9,79,0.00,,,0.00,WUHU216HW,2013-08-23 15:05:00,
2013-08-23 11:30:00,79.9,72.1,29.96,SSE,158,1.6,1.6,77,0.00,,,0.00,WUHU216HW,2013-08-23 15:30:00,
2013-08-23 11:35:00,79.9,72.1,29.96,SSE,158,1.6,1.6,77,0.00,,,0.00,WUHU216HW,2013-08-23 15:35:00,
2013-08-23 12:00:00,81.7,72.6,29.95,West,270,0.0,0.0,74,0.00,,,0.00,WUHU216HW,2013-08-23 16:00:00,
2013-08-23 12:05:00,81.7,72.6,29.95,West,270,0.0,0.0,74,0.00,,,0.00,WUHU216HW,2013-08-23 16:05:00,
2013-08-23 12:30:00,82.6,72.6,29.94,NNE,23,0.9,0.9,72,0.00,,,0.00,WUHU216HW,2013-08-23 16:30:00,
2013-08-23 12:35:00,82.6,72.6,29.94,NNE,23,0.9,0.9,72,0.00,,,0.00,WUHU216HW,2013-08-23 16:35:00,
2013-08-23 13:00:00,83.7,73.3,29.93,SE,135,0.7,0.7,71,0.00,,,0.00,WUHU216HW,2013-08-23 17:00:00,
2013-08-23 13:05:00,83.7,73.3,29.93,SE,135,0.7,0.7,71,0.00,,,0.00,WUHU216HW,2013-08-23 17:05:00,
2013-08-23 13:30:00,85.3,73.2,29.93,SW,225,1.1,1.1,67,0.00,,,0.00,WUHU216HW,2013-08-23 17:30:00,
2013-08-23 13:35:00,85.3,73.2,29.93,SW,225,1.1,1.1,67,0.00,,,0.00,WUHU216HW,2013-08-23 17:35:00,
2013-08-23 14:00:00,86.9,73.3,29.92,WSW,248,0.9,0.9,64,0.00,,,0.00,WUHU216HW,2013-08-23 18:00:00,
2013-08-23 14:04:00,86.9,73.3,29.92,WSW,248,0.9,0.9,64,0.00,,,0.00,WUHU216HW,2013-08-23 18:04:00,
2013-08-23 14:30:00,89.1,74.0,29.90,SSW,203,1.8,1.8,61,0.00,,,0.00,WUHU216HW,2013-08-23 18:30:00,
2013-08-23 14:34:00,89.1,74.0,29.90,SSW,203,1.8,1.8,61,0.00,,,0.00,WUHU216HW,2013-08-23 18:34:00,
2013-08-23 15:00:00,88.4,72.8,29.90,WSW,248,0.4,0.4,60,0.00,,,0.00,WUHU216HW,2013-08-23 19:00:00,
2013-08-23 15:05:00,88.4,72.8,29.90,WSW,248,0.4,0.4,60,0.00,,,0.00,WUHU216HW,2013-08-23 19:05:00,
2013-08-23 15:30:00,90.2,72.3,29.88,NNE,23,2.5,2.5,56,0.00,,,0.00,WUHU216HW,2013-08-23 19:30:00,
2013-08-23 15:35:00,90.2,72.3,29.88,NNE,23,2.5,2.5,56,0.00,,,0.00,WUHU216HW,2013-08-23 19:35:00,
2013-08-23 16:00:00,87.5,72.9,29.88,NE,45,2.5,2.5,62,0.00,,,0.00,WUHU216HW,2013-08-23 20:00:00,
2013-08-23 16:04:00,87.5,72.9,29.88,NE,45,2.5,2.5,62,0.00,,,0.00,WUHU216HW,2013-08-23 20:04:00,
2013-08-23 16:30:00,87.8,73.3,29.87,North,0,1.6,1.6,62,0.00,,,0.00,WUHU216HW,2013-08-23 20:30:00,
2013-08-23 16:35:00,87.8,73.3,29.87,North,0,1.6,1.6,62,0.00,,,0.00,WUHU216HW,2013-08-23 20:35:00,
2013-08-23 17:00:00,87.3,74.1,29.87,NNW,338,0.2,0.2,65,0.00,,,0.00,WUHU216HW,2013-08-23 21:00:00,
2013-08-23 17:05:00,87.3,74.1,29.87,NNW,338,0.2,0.2,65,0.00,,,0.00,WUHU216HW,2013-08-23 21:05:00,
2013-08-23 17:30:00,86.2,72.6,29.87,South,180,0.9,0.9,64,0.00,,,0.00,WUHU216HW,2013-08-23 21:30:00,
2013-08-23 17:35:00,86.2,72.6,29.87,South,180,0.9,0.9,64,0.00,,,0.00,WUHU216HW,2013-08-23 21:35:00,
2013-08-23 18:00:00,86.0,72.9,29.88,WSW,248,0.4,0.4,65,0.00,,,0.00,WUHU216HW,2013-08-23 22:00:00,
2013-08-23 18:05:00,86.0,72.9,29.88,WSW,248,0.4,0.4,65,0.00,,,0.00,WUHU216HW,2013-08-23 22:05:00,
2013-08-23 18:30:00,85.1,72.0,29.89,ENE,68,0.9,0.9,65,0.00,,,0.00,WUHU216HW,2013-08-23 22:30:00,
2013-08-23 18:35:00,85.1,72.0,29.89,ENE,68,0.9,0.9,65,0.00,,,0.00,WUHU216HW,2013-08-23 22:35:00,
2013-08-23 19:00:00,84.4,72.3,29.90,NNE,23,0.4,0.4,67,0.00,,,0.00,WUHU216HW,2013-08-23 23:00:00,
2013-08-23 19:05:00,84.4,72.3,29.90,NNE,23,0.4,0.4,67,0.00,,,0.00,WUHU216HW,2013-08-23 23:05:00,
2013-08-23 19:30:00,83.0,72.2,29.91,North,0,0.4,0.4,70,0.00,,,0.00,WUHU216HW,2013-08-23 23:30:00,
2013-08-23 19:35:00,83.0,72.2,29.91,North,0,0.4,0.4,70,0.00,,,0.00,WUHU216HW,2013-08-23 23:35:00,
2013-08-23 20:00:00,81.5,71.3,29.92,North,0,2.5,2.5,71,0.00,,,0.00,WUHU216HW,2013-08-24 00:00:00,
2013-08-23 20:05:00,81.5,71.3,29.92,North,0,2.5,2.5,71,0.00,,,0.00,WUHU216HW,2013-08-24 00:05:00,
2013-08-23 20:30:00,79.4,69.6,29.94,NW,315,0.0,0.0,72,0.00,,,0.00,WUHU216HW,2013-08-24 00:30:00,
2013-08-23 20:35:00,79.4,69.6,29.94,NW,315,0.0,0.0,72,0.00,,,0.00,WUHU216HW,2013-08-24 00:35:00,
2013-08-23 21:00:00,77.6,69.0,29.95,East,90,1.3,1.3,75,0.00,,,0.00,WUHU216HW,2013-08-24 01:00:00,
2013-08-23 21:05:00,77.6,69.0,29.95,East,90,1.3,1.3,75,0.00,,,0.00,WUHU216HW,2013-08-24 01:05:00,
2013-08-23 21:30:00,76.3,68.9,29.97,WNW,293,0.7,0.7,78,0.00,,,0.00,WUHU216HW,2013-08-24 01:30:00,
2013-08-23 21:35:00,76.3,68.9,29.97,WNW,293,0.7,0.7,78,0.00,,,0.00,WUHU216HW,2013-08-24 01:35:00,
2013-08-23 22:00:00,76.0,68.7,29.98,NE,45,0.7,0.7,78,0.00,,,0.00,WUHU216HW,2013-08-24 02:00:00,
2013-08-23 22:05:00,76.0,68.7,29.98,NE,45,0.7,0.7,78,0.00,,,0.00,WUHU216HW,2013-08-24 02:05:00,
2013-08-23 22:30:00,75.4,68.5,29.98,NNE,23,0.4,0.4,79,0.00,,,0.00,WUHU216HW,2013-08-24 02:30:00,
2013-08-23 22:35:00,75.4,68.5,29.98,NNE,23,0.4,0.4,79,0.00,,,0.00,WUHU216HW,2013-08-24 02:35:00,
2013-08-23 23:00:00,74.2,68.1,30.00,NNW,338,0.7,0.7,81,0.00,,,0.00,WUHU216HW,2013-08-24 03:00:00,
2013-08-23 23:05:00,74.2,68.1,30.00,NNW,338,0.7,0.7,81,0.00,,,0.00,WUHU216HW,2013-08-24 03:05:00,
2013-08-23 23:30:00,72.7,67.0,30.00,ENE,68,0.0,0.0,82,0.00,,,0.00,WUHU216HW,2013-08-24 03:30:00,
2013-08-23 23:35:00,72.7,67.0,30.00,ENE,68,0.0,0.0,82,0.00,,,0.00,WUHU216HW,2013-08-24 03:35:00,